Location: Allos
(44.2333°N, 6.6333°E)
Time: 13:12:12
(UTC+00:00)

SAR-Lupe-1 - Pass Details

Date: 01 December 2020
Orbit: 481 x 485 km, 98.2° (Epoch: 22 January)

Event Time Altitude Azimuth Distance (km) Brightness Sun altitude
Exits shadow 17:42:11 50° 51° (NE) 626 4.2 -18.5°
Maximum altitude 17:42:52 62° 102° (ESE) 548 4.0 -18.6°
Drops below altitude 10° 17:46:23 10° 184° (S) 1,653 6.9 -19.2°
Sets 17:48:27 0° 187° (S) 2,527 8.0 -19.6°
